Location: Bryzozowice
(50.3667°N, 18.9667°E)
Time: 21:41:42
(UTC+00:00)

USA 267 - Pass Details

Date: 24 January 2020
Orbit: 1099 x 1108 km, 123.0° (Epoch: 10 February)

Event Time Altitude Azimuth Distance (km) Brightness Sun altitude
Exits shadow 16:42:58 15° 58° (ENE) 2,616 4.6 -12.6°
Maximum altitude 16:48:36 79° 333° (NNW) 1,125 3.3 -13.5°
Drops below altitude 10° 16:55:08 10° 248° (WSW) 2,960 6.9 -14.5°
Sets 16:57:37 0° 248° (WSW) 3,917 7.9 -14.9°
